Location: Aufkirchen
(47.9603°N, 11.3653°E)
Time: 07:04:08
(UTC+01:00)

Transit 4A - Pass Details

Date: 03 December 2020
Orbit: 864 x 980 km, 66.8° (Epoch: 25 January)

Event Time Altitude Azimuth Distance (km) Brightness Sun altitude
Rises 05:56:37 0° 169° (SSE) 3,618 11.3 -17.5°
Reaches altitude 10° 05:59:40 10° 155° (SSE) 2,692 10.9 -17.0°
Maximum altitude 06:04:24 23° 106° (ESE) 1,954 10.6 -16.3°
Drops below altitude 10° 06:09:11 10° 57° (ENE) 2,736 10.9 -15.5°
Sets 06:12:18 0° 44° (NE) 3,691 11.4 -15.0°
